Location: Davayat
(45.9471°N, 3.1105°E)
Time: 18:25:25
(UTC+00:00)

Meteor 1-5 Rocket - Pass Details

Date: 01 December 2020
Orbit: 788 x 916 km, 81.2° (Epoch: 23 January)

Event Time Altitude Azimuth Distance (km) Brightness Sun altitude
Rises 17:53:00 0° 350° (N) 3,550 7.4 -18.3°
Reaches altitude 10° 17:55:31 10° 353° (N) 2,594 6.7 -18.7°
Maximum altitude 18:01:27 71° 78° (ENE) 936 4.2 -19.7°
Drops below altitude 10° 18:07:08 10° 162° (SSE) 2,502 6.6 -20.7°
Sets 18:09:32 0° 164° (SSE) 3,415 7.3 -21.1°
